QFA471 YMML-YSSY

Flight info

Callsign QFA471
Flight time 1h 6m
Altitude 35000
Route DCT ML H129 DOSEL Y59 RIVET RIVET4
Aircraft B738/M-SDE2E3FGHIRWXY/LB1

Departure

Time 2026-04-30 12:49
Airport Melbourne Airport (YMML)

Arrival

Time 2026-04-30 13:55
Airport Sydney Kingsford Smith International Airport (YSSY)
Time Latitude Longitude Altitude Speed Heading
2026-04-30 12:22 -37.66719 144.84905 399 ft 0 kts 82°
2026-04-30 12:38 -37.66722 144.84877 399 ft 4 kts 80°
2026-04-30 12:38 -37.66729 144.84845 398 ft 4 kts 59°
2026-04-30 12:39 -37.66742 144.84829 396 ft 4 kts 341°
2026-04-30 12:39 -37.66732 144.84823 397 ft 0 kts 336°
2026-04-30 12:42 -37.66726 144.84821 397 ft 3 kts 342°
2026-04-30 12:42 -37.66708 144.84814 399 ft 5 kts 345°
2026-04-30 12:42 -37.66671 144.84804 400 ft 6 kts 344°
2026-04-30 12:42 -37.66640 144.84723 401 ft 12 kts 263°
2026-04-30 12:43 -37.66649 144.84642 398 ft 15 kts 261°
2026-04-30 12:43 -37.66665 144.84508 396 ft 15 kts 261°
2026-04-30 12:43 -37.66680 144.84382 396 ft 14 kts 261°
2026-04-30 12:43 -37.66694 144.84264 393 ft 13 kts 261°
2026-04-30 12:44 -37.66749 144.84186 393 ft 13 kts 184°
2026-04-30 12:44 -37.66845 144.84202 389 ft 15 kts 171°
2026-04-30 12:44 -37.66949 144.84222 386 ft 15 kts 172°
2026-04-30 12:44 -37.67053 144.84241 384 ft 15 kts 172°
2026-04-30 12:45 -37.67155 144.84260 382 ft 15 kts 171°
2026-04-30 12:45 -37.67258 144.84280 380 ft 15 kts 172°
2026-04-30 12:45 -37.67360 144.84299 378 ft 15 kts 172°
2026-04-30 12:45 -37.67470 144.84319 375 ft 17 kts 172°
2026-04-30 12:46 -37.67598 144.84343 371 ft 20 kts 171°
2026-04-30 12:46 -37.67725 144.84367 371 ft 14 kts 172°
2026-04-30 12:46 -37.67824 144.84331 362 ft 17 kts 220°
2026-04-30 12:46 -37.67863 144.84198 361 ft 11 kts 262°
2026-04-30 12:47 -37.67872 144.84125 364 ft 0 kts 262°
2026-04-30 12:47 -37.67872 144.84124 364 ft 0 kts 262°
2026-04-30 12:47 -37.67872 144.84121 364 ft 1 kts 262°
2026-04-30 12:47 -37.67874 144.84100 360 ft 4 kts 262°
2026-04-30 12:48 -37.67883 144.84028 359 ft 14 kts 262°
2026-04-30 12:48 -37.67838 144.83959 359 ft 12 kts 352°
2026-04-30 12:48 -37.67554 144.83910 364 ft 76 kts 352°
2026-04-30 12:48 -37.66834 144.83774 392 ft 130 kts 352°
2026-04-30 12:49 -37.65805 144.83568 561 ft 157 kts 349°
2026-04-30 12:49 -37.64721 144.83299 1177 ft 160 kts 352°
2026-04-30 12:49 -37.63572 144.83133 1562 ft 179 kts 355°
2026-04-30 12:49 -37.62259 144.82906 1782 ft 201 kts 353°
2026-04-30 12:50 -37.60824 144.82623 2055 ft 213 kts 353°
2026-04-30 12:50 -37.59340 144.82458 2548 ft 221 kts
2026-04-30 12:50 -37.57822 144.83040 3011 ft 232 kts 21°
2026-04-30 12:50 -37.56325 144.83916 3572 ft 242 kts 23°
2026-04-30 12:51 -37.54822 144.84845 4309 ft 243 kts 22°
2026-04-30 12:51 -37.53307 144.85786 5100 ft 241 kts 23°
2026-04-30 12:51 -37.51769 144.86736 5664 ft 249 kts 22°
2026-04-30 12:51 -37.50228 144.87681 6404 ft 249 kts 22°
2026-04-30 12:52 -37.48654 144.88639 6966 ft 255 kts 22°
2026-04-30 12:52 -37.47035 144.89620 7554 ft 260 kts 22°
2026-04-30 12:52 -37.45390 144.90617 8179 ft 265 kts 21°
2026-04-30 12:52 -37.43756 144.91761 8812 ft 275 kts 36°
2026-04-30 12:53 -37.42496 144.93611 9454 ft 286 kts 50°
2026-04-30 12:53 -37.41331 144.95668 10115 ft 292 kts 51°
2026-04-30 12:53 -37.40127 144.97823 10392 ft 312 kts 51°
2026-04-30 12:53 -37.38832 145.00136 10559 ft 333 kts 51°
2026-04-30 12:54 -37.37459 145.02584 10795 ft 350 kts 52°
2026-04-30 12:54 -37.36040 145.05111 11321 ft 357 kts 52°
2026-04-30 12:54 -37.34597 145.07675 12004 ft 359 kts 52°
2026-04-30 12:54 -37.33163 145.10216 12689 ft 361 kts 52°
2026-04-30 12:55 -37.31695 145.12811 13365 ft 365 kts 52°
2026-04-30 12:55 -37.30210 145.15430 14039 ft 368 kts 52°
2026-04-30 12:55 -37.28726 145.18044 14663 ft 372 kts 52°
2026-04-30 12:55 -37.27203 145.20722 15268 ft 377 kts 52°
2026-04-30 12:56 -37.25678 145.23403 15872 ft 382 kts 52°
2026-04-30 12:56 -37.24127 145.26126 16499 ft 386 kts 51°
2026-04-30 12:56 -37.22553 145.28890 17108 ft 390 kts 51°
2026-04-30 12:56 -37.20968 145.31669 17706 ft 394 kts 51°
2026-04-30 12:57 -37.19359 145.34491 18321 ft 398 kts 51°
2026-04-30 12:57 -37.17733 145.37337 18879 ft 403 kts 51°
2026-04-30 12:57 -37.16098 145.40197 19423 ft 405 kts 51°
2026-04-30 12:57 -37.14465 145.43048 19959 ft 408 kts 50°
2026-04-30 12:58 -37.12794 145.45961 20493 ft 411 kts 51°
2026-04-30 12:58 -37.11116 145.48882 21014 ft 414 kts 51°
2026-04-30 12:58 -37.09426 145.51823 21521 ft 417 kts 51°
2026-04-30 12:58 -37.07747 145.54746 22010 ft 420 kts 51°
2026-04-30 12:59 -37.06030 145.57732 22516 ft 423 kts 51°
2026-04-30 12:59 -37.04297 145.60743 22982 ft 426 kts 51°
2026-04-30 12:59 -37.02574 145.63735 23453 ft 429 kts 51°
2026-04-30 12:59 -37.00820 145.66778 23910 ft 431 kts 51°
2026-04-30 13:00 -36.99058 145.69832 24297 ft 434 kts 51°
2026-04-30 13:00 -36.97284 145.72902 24687 ft 437 kts 51°
2026-04-30 13:00 -36.95498 145.75993 25082 ft 439 kts 51°
2026-04-30 13:00 -36.93723 145.79061 25459 ft 441 kts 50°
2026-04-30 13:01 -36.91924 145.82167 25876 ft 442 kts 50°
2026-04-30 13:01 -36.90114 145.85290 26247 ft 444 kts 50°
2026-04-30 13:01 -36.88292 145.88430 26574 ft 447 kts 51°
2026-04-30 13:01 -36.86454 145.91596 26892 ft 451 kts 51°
2026-04-30 13:02 -36.84604 145.94777 27231 ft 453 kts 50°
2026-04-30 13:02 -36.82741 145.97980 27579 ft 455 kts 50°
2026-04-30 13:02 -36.80893 146.01152 27899 ft 458 kts 50°
2026-04-30 13:02 -36.79014 146.04376 28216 ft 460 kts 50°
2026-04-30 13:03 -36.77117 146.07628 28538 ft 462 kts 50°
2026-04-30 13:03 -36.75244 146.10835 28850 ft 464 kts 51°
2026-04-30 13:03 -36.73331 146.14108 29183 ft 465 kts 51°
2026-04-30 13:03 -36.71413 146.17386 29482 ft 467 kts 51°
2026-04-30 13:04 -36.69511 146.20633 29762 ft 470 kts 50°
2026-04-30 13:04 -36.67572 146.23941 30075 ft 471 kts 50°
2026-04-30 13:04 -36.65634 146.27243 30492 ft 469 kts 50°
2026-04-30 13:04 -36.63711 146.30521 30933 ft 467 kts 50°
2026-04-30 13:05 -36.61802 146.33769 31371 ft 463 kts 51°
2026-04-30 13:05 -36.59930 146.36952 31822 ft 459 kts 50°
2026-04-30 13:05 -36.58038 146.40163 32148 ft 459 kts 50°
2026-04-30 13:06 -36.54255 146.46573 32727 ft 459 kts 50°
2026-04-30 13:06 -36.52380 146.49746 33098 ft 457 kts 50°
2026-04-30 13:06 -36.50486 146.52949 33483 ft 455 kts 50°
2026-04-30 13:06 -36.48631 146.56084 33802 ft 454 kts 50°
2026-04-30 13:07 -36.46751 146.59257 34095 ft 454 kts 50°
2026-04-30 13:07 -36.44876 146.62419 34390 ft 453 kts 50°
2026-04-30 13:07 -36.43016 146.65552 34678 ft 452 kts 50°
2026-04-30 13:07 -36.41143 146.68706 34881 ft 453 kts 50°
2026-04-30 13:08 -36.39266 146.71861 35069 ft 454 kts 50°
2026-04-30 13:08 -36.37380 146.75030 35305 ft 454 kts 50°
2026-04-30 13:08 -36.35520 146.78152 35377 ft 457 kts 50°
2026-04-30 13:09 -36.31711 146.84536 35388 ft 459 kts 50°
2026-04-30 13:09 -36.27950 146.90834 35381 ft 452 kts 50°
2026-04-30 13:10 -36.24245 146.97023 35399 ft 451 kts 50°
2026-04-30 13:10 -36.20462 147.03331 35390 ft 451 kts 50°
2026-04-30 13:11 -36.16740 147.09524 35396 ft 451 kts 50°
2026-04-30 13:11 -36.12982 147.15767 35397 ft 452 kts 50°
2026-04-30 13:12 -36.09219 147.22007 35414 ft 453 kts 50°
2026-04-30 13:12 -36.05455 147.28241 35406 ft 455 kts 50°
2026-04-30 13:13 -35.99753 147.37664 35409 ft 457 kts 50°
2026-04-30 13:14 -35.94041 147.47079 35412 ft 459 kts 50°
2026-04-30 13:14 -35.88280 147.56549 35416 ft 460 kts 50°
2026-04-30 13:15 -35.82518 147.65994 35419 ft 460 kts 50°
2026-04-30 13:16 -35.78665 147.72288 35425 ft 459 kts 50°
2026-04-30 13:16 -35.74837 147.78532 35430 ft 458 kts 50°
2026-04-30 13:17 -35.69074 147.87914 35436 ft 457 kts 50°
2026-04-30 13:18 -35.63328 147.97245 35442 ft 455 kts 50°
2026-04-30 13:18 -35.59662 148.03195 35409 ft 416 kts 50°
2026-04-30 13:18 -35.57957 148.05958 35378 ft 407 kts 50°
2026-04-30 13:19 -35.54484 148.11560 35446 ft 416 kts 50°
2026-04-30 13:19 -35.50933 148.17283 35464 ft 428 kts 50°
2026-04-30 13:20 -35.47295 148.23146 35463 ft 439 kts 50°
2026-04-30 13:20 -35.43549 148.29174 35466 ft 449 kts 50°
2026-04-30 13:21 -35.39703 148.35336 35465 ft 459 kts 50°
2026-04-30 13:22 -35.33863 148.44668 35445 ft 460 kts 51°
2026-04-30 13:22 -35.28041 148.53955 35450 ft 460 kts 51°
2026-04-30 13:23 -35.22196 148.63252 35462 ft 459 kts 51°
2026-04-30 13:24 -35.14409 148.75600 35462 ft 458 kts 51°
2026-04-30 13:25 -35.06643 148.87872 35453 ft 457 kts 51°
2026-04-30 13:26 -34.96905 149.03199 35455 ft 457 kts 51°
2026-04-30 13:27 -34.93000 149.09327 35273 ft 461 kts 51°
2026-04-30 13:28 -34.87069 149.18614 33521 ft 459 kts 52°
2026-04-30 13:28 -34.83187 149.24681 32573 ft 450 kts 51°
2026-04-30 13:28 -34.81295 149.27635 32127 ft 446 kts 51°
2026-04-30 13:29 -34.77519 149.33524 31239 ft 438 kts 51°
2026-04-30 13:29 -34.73835 149.39352 30338 ft 431 kts 56°
2026-04-30 13:30 -34.69668 149.48756 29130 ft 414 kts 62°
2026-04-30 13:31 -34.67043 149.54908 28225 ft 406 kts 61°
2026-04-30 13:31 -34.63568 149.62900 27076 ft 398 kts 61°
2026-04-30 13:32 -34.60989 149.68785 26227 ft 392 kts 61°
2026-04-30 13:32 -34.58439 149.74590 25384 ft 387 kts 61°
2026-04-30 13:33 -34.55919 149.80323 24550 ft 383 kts 61°
2026-04-30 13:33 -34.53431 149.85973 23644 ft 381 kts 61°
2026-04-30 13:34 -34.52184 149.88802 23194 ft 378 kts 61°
2026-04-30 13:34 -34.48498 149.97146 21969 ft 369 kts 61°
2026-04-30 13:35 -34.47288 149.99881 21555 ft 366 kts 61°
2026-04-30 13:35 -34.44888 150.05300 20748 ft 362 kts 61°
2026-04-30 13:36 -34.42518 150.10645 19950 ft 358 kts 61°
2026-04-30 13:36 -34.41341 150.13297 19557 ft 357 kts 61°
2026-04-30 13:36 -34.39013 150.18536 18737 ft 355 kts 61°
2026-04-30 13:37 -34.37844 150.21165 18294 ft 353 kts 61°
2026-04-30 13:37 -34.35525 150.26370 17473 ft 349 kts 60°
2026-04-30 13:38 -34.33231 150.31518 16680 ft 344 kts 61°
2026-04-30 13:38 -34.32098 150.34056 16295 ft 342 kts 61°
2026-04-30 13:38 -34.29849 150.39090 15529 ft 338 kts 61°
2026-04-30 13:39 -34.27632 150.44042 14776 ft 335 kts 60°
2026-04-30 13:39 -34.25419 150.48986 13987 ft 332 kts 60°
2026-04-30 13:40 -34.24322 150.51435 13576 ft 331 kts 60°
2026-04-30 13:40 -34.23226 150.53880 13182 ft 329 kts 60°
2026-04-30 13:40 -34.22154 150.56272 12805 ft 326 kts 60°
2026-04-30 13:40 -34.21078 150.58672 12432 ft 324 kts 60°
2026-04-30 13:41 -34.20005 150.61062 12058 ft 322 kts 60°
2026-04-30 13:41 -34.18940 150.63432 11683 ft 320 kts 60°
2026-04-30 13:41 -34.17880 150.65788 11318 ft 318 kts 60°
2026-04-30 13:41 -34.16826 150.68131 10947 ft 316 kts 60°
2026-04-30 13:42 -34.15770 150.70477 10484 ft 318 kts 60°
2026-04-30 13:42 -34.14721 150.72807 10227 ft 312 kts 60°
2026-04-30 13:42 -34.12721 150.77251 9965 ft 292 kts 60°
2026-04-30 13:43 -34.11766 150.79369 9543 ft 288 kts 60°
2026-04-30 13:43 -34.10823 150.81455 9207 ft 281 kts 60°
2026-04-30 13:43 -34.09889 150.83524 8930 ft 278 kts 60°
2026-04-30 13:43 -34.08973 150.85559 8698 ft 274 kts 60°
2026-04-30 13:44 -34.08066 150.87576 8471 ft 273 kts 60°
2026-04-30 13:44 -34.07162 150.89583 8260 ft 273 kts 61°
2026-04-30 13:44 -34.06256 150.91595 8035 ft 272 kts 61°
2026-04-30 13:44 -34.05353 150.93598 7818 ft 272 kts 61°
2026-04-30 13:45 -34.03558 150.97608 7385 ft 271 kts 65°
2026-04-30 13:45 -34.03192 150.99815 7152 ft 271 kts 94°
2026-04-30 13:45 -34.03697 151.01992 6964 ft 271 kts 116°
2026-04-30 13:46 -34.04825 151.03809 6747 ft 272 kts 131°
2026-04-30 13:46 -34.06128 151.05438 6505 ft 272 kts 132°
2026-04-30 13:46 -34.07464 151.07050 6280 ft 272 kts 138°
2026-04-30 13:46 -34.09151 151.08072 6057 ft 275 kts 163°
2026-04-30 13:47 -34.11023 151.08566 5848 ft 275 kts 166°
2026-04-30 13:47 -34.12900 151.09026 5627 ft 275 kts 166°
2026-04-30 13:47 -34.14782 151.09496 5399 ft 275 kts 166°
2026-04-30 13:47 -34.16655 151.09975 5182 ft 275 kts 166°
2026-04-30 13:48 -34.18532 151.10459 4949 ft 275 kts 166°
2026-04-30 13:48 -34.20384 151.11020 4714 ft 273 kts 154°
2026-04-30 13:48 -34.21822 151.12375 4517 ft 264 kts 123°
2026-04-30 13:48 -34.22529 151.14370 4319 ft 257 kts 96°
2026-04-30 13:49 -34.22453 151.16491 4130 ft 252 kts 73°
2026-04-30 13:49 -34.21741 151.18395 3923 ft 248 kts 52°
2026-04-30 13:49 -34.20579 151.19889 3736 ft 242 kts 42°
2026-04-30 13:49 -34.19366 151.21213 3654 ft 228 kts 41°
2026-04-30 13:50 -34.18207 151.22437 3546 ft 213 kts 37°
2026-04-30 13:50 -34.15525 151.22774 3332 ft 187 kts 356°
2026-04-30 13:50 -34.14274 151.22611 3236 ft 174 kts 354°
2026-04-30 13:51 -34.13082 151.22375 2839 ft 174 kts 351°
2026-04-30 13:51 -34.11909 151.22093 2828 ft 173 kts 350°
2026-04-30 13:51 -34.10737 151.21794 2812 ft 171 kts 350°
2026-04-30 13:51 -34.09563 151.21490 2663 ft 173 kts 349°
2026-04-30 13:52 -34.08404 151.21188 2418 ft 165 kts 350°
2026-04-30 13:52 -34.07343 151.20910 2229 ft 149 kts 350°
2026-04-30 13:52 -34.06348 151.20651 2038 ft 143 kts 351°
2026-04-30 13:52 -34.05372 151.20398 1847 ft 144 kts 350°
2026-04-30 13:53 -34.04381 151.20140 1641 ft 146 kts 350°
2026-04-30 13:53 -34.03396 151.19883 1447 ft 145 kts 350°
2026-04-30 13:53 -34.02405 151.19625 1269 ft 146 kts 350°
2026-04-30 13:53 -34.01411 151.19366 1072 ft 146 kts 350°
2026-04-30 13:54 -34.00437 151.19113 885 ft 144 kts 350°
2026-04-30 13:54 -33.99442 151.18854 685 ft 147 kts 348°
2026-04-30 13:54 -33.98438 151.18591 479 ft 149 kts 345°
2026-04-30 13:54 -33.97413 151.18322 272 ft 151 kts 346°
2026-04-30 13:55 -33.96390 151.18056 91 ft 150 kts 345°
2026-04-30 13:55 -33.95415 151.17800 28 ft 133 kts 346°
2026-04-30 13:55 -33.94671 151.17609 29 ft 80 kts 348°
2026-04-30 13:55 -33.94272 151.17503 29 ft 42 kts 347°
2026-04-30 13:56 -33.94028 151.17442 29 ft 15 kts 348°
2026-04-30 13:56 -33.93931 151.17432 29 ft 14 kts 27°
2026-04-30 13:56 -33.93898 151.17527 27 ft 12 kts 75°
2026-04-30 13:56 -33.93877 151.17590 28 ft 3 kts 33°
2026-04-30 13:57 -33.93852 151.17596 28 ft 4 kts
2026-04-30 13:57 -33.93819 151.17591 28 ft 6 kts 350°
2026-04-30 13:57 -33.93768 151.17578 28 ft 9 kts 346°
2026-04-30 13:57 -33.93694 151.17558 28 ft 12 kts 347°
2026-04-30 13:58 -33.93640 151.17543 28 ft 6 kts 347°
2026-04-30 13:58 -33.93555 151.17521 28 ft 6 kts 349°
2026-04-30 13:58 -33.93514 151.17511 28 ft 6 kts 348°
2026-04-30 13:59 -33.93474 151.17517 29 ft 6 kts 34°
2026-04-30 13:59 -33.93454 151.17565 29 ft 7 kts 63°
2026-04-30 13:59 -33.93414 151.17593 29 ft 8 kts
2026-04-30 13:59 -33.93351 151.17584 29 ft 10 kts 349°
2026-04-30 14:00 -33.93275 151.17565 29 ft 11 kts 348°
2026-04-30 14:00 -33.93171 151.17538 29 ft 3 kts 348°
2026-04-30 14:00 -33.93151 151.17532 29 ft 3 kts 347°
2026-04-30 14:01 -33.93130 151.17527 29 ft 3 kts 347°
2026-04-30 14:01 -33.93104 151.17521 29 ft 5 kts 351°
2026-04-30 14:01 -33.93058 151.17531 29 ft 9 kts 22°
2026-04-30 14:01 -33.93006 151.17596 29 ft 13 kts 85°
2026-04-30 14:02 -33.93033 151.17706 29 ft 13 kts 117°
2026-04-30 14:02 -33.93059 151.17783 29 ft 8 kts 102°
2026-04-30 14:02 -33.93067 151.17838 29 ft 6 kts 101°
2026-04-30 14:02 -33.93083 151.17871 29 ft 5 kts 146°
2026-04-30 14:03 -33.93115 151.17864 29 ft 5 kts 195°
2026-04-30 14:03 -33.93140 151.17858 29 ft 2 kts 191°
2026-04-30 14:03 -33.93144 151.17857 29 ft 0 kts 191°
2026-04-30 14:03 -33.93146 151.17857 29 ft 0 kts 191°
2026-04-30 14:04 -33.93147 151.17857 29 ft 0 kts 191°